Ncc Najd — HZAK — position and weather

sailwx.info

Track history (hours):
 
Tides and Currents Weather Stations Pressure Air Temp Water Temp Dewpoint Dewpoint Depression Visibility Wind Speed Wind Dir Waves Ship Positions

Ncc Najd

Last reported at 2016-Aug-01 17:33 UTC. Time now 2016-Aug-30 09:05 UTC.
Position N 01°58' E 102°14'.
Warning: this ship's position is 28 days out of date.

Length 183 m; draft 8.4 m.

Type: Tanker. MMSI: 403579000.

Date/timePositionNaut miles runAvg speedWind from/ knotsBaromVisibWave heightAir tempDewpointWater temp
2016-Aug-01 17:33N 01°58' E 102°14'1716.6
2016-Aug-01 16:33N 01°51' E 102°29'1616.4
2016-Aug-01 15:33N 01°43' E 102°43'6414.9
2016-Aug-01 11:15N 01°11' E 103°39'913.4
2016-Aug-01 10:33N 01°11' E 103°48'1514.5
2016-Aug-01 09:33N 01°16' E 104°02'  
2016-Jul-28 02:33N 22°40' E 119°50'52911.5
2016-Jul-26 04:33N 31°19' E 121°43'9 9.6
2016-Jul-26 03:33N 31°24' E 121°33'9 9.1
2016-Jul-26 02:34N 31°30' E 121°25'8 0.2
2016-Jul-24 10:32N 31°35' E 121°18'1 0.1
2016-Jul-24 04:15N 31°35' E 121°17'0 0.0
2016-Jul-23 13:33N 31°35' E 121°17'0 0.0
2016-Jul-23 11:33N 31°35' E 121°17'3 3.1
2016-Jul-23 10:33N 31°33' E 121°20'1111.0
2016-Jul-23 09:33N 31°26' E 121°30'7 7.1
2016-Jul-23 08:33N 31°22' E 121°37'1010.1
2016-Jul-23 07:32N 31°18' E 121°48'1914.0
2016-Jul-23 06:09N 31°12' E 122°09'5113.6
2016-Jul-23 02:23N 31°02' E 123°08'6413.2
2016-Jul-22 21:34N 30°02' E 123°34'  
Track history (hours):
 
Tides and Currents Weather Stations Pressure Air Temp Water Temp Dewpoint Dewpoint Depression Visibility Wind Speed Wind Dir Waves Ship Positions

Ncc Najd

Last reported at 2016-Aug-01 17:33 UTC. Time now 2016-Aug-30 09:05 UTC.
Position N 01°58' E 102°14'.
Warning: this ship's position is 28 days out of date.

Length 183 m; draft 8.4 m.

Type: Tanker. MMSI: 403579000.

Date/timePositionNaut miles runAvg speedWind from/ knotsBaromVisibWave heightAir tempDewpointWater temp
2016-Aug-01 17:33N 01°58' E 102°14'1716.6
2016-Aug-01 16:33N 01°51' E 102°29'1616.4
2016-Aug-01 15:33N 01°43' E 102°43'6414.9
2016-Aug-01 11:15N 01°11' E 103°39'913.4
2016-Aug-01 10:33N 01°11' E 103°48'1514.5
2016-Aug-01 09:33N 01°16' E 104°02'  
2016-Jul-28 02:33N 22°40' E 119°50'52911.5
2016-Jul-26 04:33N 31°19' E 121°43'9 9.6
2016-Jul-26 03:33N 31°24' E 121°33'9 9.1
2016-Jul-26 02:34N 31°30' E 121°25'8 0.2
2016-Jul-24 10:32N 31°35' E 121°18'1 0.1
2016-Jul-24 04:15N 31°35' E 121°17'0 0.0
2016-Jul-23 13:33N 31°35' E 121°17'0 0.0
2016-Jul-23 11:33N 31°35' E 121°17'3 3.1
2016-Jul-23 10:33N 31°33' E 121°20'1111.0
2016-Jul-23 09:33N 31°26' E 121°30'7 7.1
2016-Jul-23 08:33N 31°22' E 121°37'1010.1
2016-Jul-23 07:32N 31°18' E 121°48'1914.0
2016-Jul-23 06:09N 31°12' E 122°09'5113.6
2016-Jul-23 02:23N 31°02' E 123°08'6413.2
2016-Jul-22 21:34N 30°02' E 123°34'  

Dump ship's entire track history